EW7452 Weather Reports


time (UTC)temp
C
wind
direction
speed
KPH
gust
KPH
rain 1hr
cm
rain 24hr
cm
rain mn
cm
humidity
%
barometer
mb
20260906094604 9 14 12.9 30.6 0.00 0.03 0.00 76 1008.0
20260906093003 9 359 14.5 25.7 0.00 0.03 0.00 75 1007.8
20260906091502 9 35 16.1 30.6 0.00 0.03 0.00 75 1007.6
20260906084503 9 354 16.1 32.2 0.00 0.03 0.00 75 1007.4
20260906083002 8 330 12.9 35.4 0.00 0.03 0.00 78 1007.1
20260906081603 8 4 8.0 30.6 0.00 0.03 0.00 78 1007.0
20260906074503 8 338 12.9 33.8 0.00 0.03 0.00 79 1006.8
20260906073102 8 354 9.7 29.0 0.00 0.03 0.00 76 1006.7
20260906071612 8 18 11.3 25.7 0.00 0.03 0.00 77 1006.5
20260906070109 9 8 17.7 35.4 0.00 0.03 0.00 79 1006.3
20260906064601 8 321 11.3 29.0 0.00 0.03 0.00 78 1006.1
20260906063101 8 21 11.3 35.4 0.00 0.03 0.00 78 1005.8
20260906061629 8 8 20.9 33.8 0.00 0.03 0.00 77 1005.7
20260906060114 8 18 11.3 29.0 0.00 0.03 0.00 78 1005.4
20260906054610 8 27 12.9 37.0 0.00 0.03 0.00 76 1005.3
20260906053102 8 4 16.1 30.6 0.00 0.03 0.00 77 1005.2
20260906051610 8 28 9.7 32.2 0.00 0.03 0.00 76 1005.0
20260906050101 8 25 17.7 29.0 0.00 0.03 0.00 77 1004.9
20260906044600 8 4 12.9 32.2 0.00 0.03 0.00 76 1004.7
20260906043106 8 4 12.9 38.6 0.00 0.03 0.00 77 1004.5
20260906041602 8 354 12.9 30.6 0.00 0.03 0.00 76 1004.6
20260906040100 9 4 17.7 37.0 0.00 0.03 0.00 78 1004.3
20260906034510 9 8 14.5 32.2 0.00 0.05 0.00 77 1004.2
20260906033101 9 10 11.3 37.0 0.00 0.05 0.00 76 1004.1
20260906031500 9 4 11.3 30.6 0.00 0.05 0.00 78 1004.1
20260906030101 9 354 12.9 32.2 0.00 0.05 0.00 76 1003.8
20260906024611 9 16 11.3 32.2 0.00 0.05 0.00 77 1003.7
20260906023110 9 16 14.5 35.4 0.00 0.05 0.00 76 1003.6
20260906021601 10 4 11.3 27.4 0.00 0.05 0.00 76 1003.5
20260906014609 10 336 11.3 29.0 0.00 0.05 0.00 75 1003.2
20260906013101 10 12 14.5 29.0 0.00 0.05 0.00 74 1003.0
20260906011501 10 349 12.9 29.0 0.00 0.05 0.00 76 1002.9
20260906010004 10 28 12.9 27.4 0.00 0.05 0.00 75 1002.7
20260906004601 10 4 14.5 32.2 0.00 0.05 0.00 77 1002.6
20260906003003 10 23 14.5 33.8 0.00 0.05 0.00 75 1002.4
20260906001501 10 19 6.4 25.7 0.00 0.05 0.00 76 1002.3
20260906000002 10 4 6.4 27.4 0.00 0.05 0.00 77 1002.1
20260905234501 10 345 8.0 30.6 0.00 0.05 0.00 78 1002.1
20260905233002 10 27 9.7 29.0 0.00 0.05 0.00 79 1002.1
20260905231601 10 50 8.0 25.7 0.00 0.05 0.00 78 1002.1
20260905230001 10 21 12.9 30.6 0.00 0.05 0.00 77 1002.0
20260905224516 10 4 8.0 25.7 0.00 0.05 0.00 78 1002.0
20260905223012 10 4 4.8 25.7 0.00 0.05 0.00 80 1001.9
20260905221548 10 349 9.7 22.5 0.00 0.05 0.00 80 1001.9
20260905214601 10 9 8.0 32.2 0.00 0.05 0.00 81 1001.7
20260905213001 10 346 9.7 32.2 0.00 0.05 0.00 81 1001.6
20260905211501 11 337 8.0 24.1 0.00 0.05 0.00 82 1001.4
20260905210000 11 13 9.7 29.0 0.00 0.10 0.05 81 1001.3
20260905204512 11 354 8.0 24.1 0.00 0.10 0.05 81 1001.2
20260905203102 11 16 14.5 32.2 0.00 0.10 0.05 82 1001.2
20260905201602 11 8 11.3 30.6 0.00 0.10 0.05 81 1001.0
20260905200104 11 354 17.7 32.2 0.00 0.10 0.05 80 1000.9
20260905194502 11 13 16.1 32.2 0.00 0.10 0.05 81 1000.7
20260905193103 11 24 20.9 33.8 0.00 0.10 0.05 83 1000.7
20260905191501 11 42 14.5 33.8 0.00 0.10 0.05 83 1000.7
20260905190002 11 38 17.7 32.2 0.00 0.10 0.05 82 1000.7
20260905184602 10 27 16.1 35.4 0.00 0.10 0.05 85 1000.6
20260905181602 10 40 20.9 37.0 0.00 0.10 0.05 86 1000.3
20260905180015 10 73 17.7 30.6 0.00 0.10 0.05 87 1000.2
20260905174601 10 359 17.7 32.2 0.00 0.10 0.05 87 1000.1
20260905173001 10 21 19.3 43.5 0.00 0.10 0.05 87 1000.0
20260905170012 11 28 19.3 33.8 0.00 0.10 0.05 84 999.7
20260905164512 11 31 17.7 32.2 0.00 0.10 0.05 84 999.4
20260905163002 11 21 14.5 33.8 0.00 0.10 0.05 86 999.3
20260905161501 11 9 19.3 30.6 0.00 0.10 0.05 84 999.2
20260905160112 10 347 16.1 35.4 0.00 0.10 0.05 85 999.1
20260905154512 10 347 19.3 32.2 0.03 0.10 0.05 86 999.0
20260905153115 10 23 16.1 40.2 0.03 0.10 0.05 87 998.9
20260905151503 10 9 16.1 33.8 0.03 0.10 0.05 87 998.8
20260905150002 10 29 11.3 33.8 0.03 0.10 0.05 88 998.7
20260905143003 10 35 12.9 32.2 0.00 0.08 0.03 87 998.4
20260905141501 10 14 16.1 32.2 0.00 0.08 0.03 86 998.2
20260905140012 10 39 20.9 33.8 0.00 0.08 0.03 86 998.1
20260905134502 10 50 16.1 32.2 0.00 0.08 0.03 87 998.0
20260905133102 10 343 17.7 35.4 0.00 0.08 0.03 87 997.9
20260905131618 10 28 17.7 37.0 0.00 0.08 0.03 87 997.8
20260905130001 10 341 12.9 35.4 0.00 0.08 0.03 88 997.6
20260905124502 11 16 17.7 33.8 0.00 0.08 0.03 86 997.5
20260905123106 11 30 17.7 37.0 0.00 0.08 0.03 86 997.4
20260905121612 11 40 14.5 32.2 0.00 0.08 0.03 86 997.4
20260905120002 11 354 12.9 35.4 0.00 0.08 0.03 87 997.1
20260905114603 10 23 19.3 37.0 0.00 0.08 0.03 88 997.0
20260905113002 10 52 20.9 38.6 0.00 0.08 0.03 88 996.9
20260905111505 10 12 17.7 33.8 0.00 0.08 0.03 88 996.6
20260905110003 11 14 17.7 41.8 0.00 0.08 0.03 88 996.4
20260905104606 11 354 22.5 41.8 0.00 0.08 0.03 88 996.2
20260905103104 11 15 19.3 37.0 0.00 0.08 0.03 88 996.1
20260905101513 11 29 19.3 35.4 0.00 0.08 0.03 88 995.9
20260905100125 11 27 22.5 37.0 0.00 0.08 0.03 88 995.8